This is the latest recevied weather packets stored in our database for station/object LU5DTF-1. If no packets are shown the sender has not sent any weather packets the latest 1 day(s).
| Time | Temp. | Humidity | Pressure | Rain* | Wind** | Luminosity | Snow |
|---|---|---|---|---|---|---|---|
| 1778014802 | 16.67° C | 74% | 1013.6 hPa | 0 mm | 0.45 m/s, 157° | - | - |
| 1778014502 | 16.67° C | 74% | 1013.6 hPa | 0 mm | 0.45 m/s, 156° | - | - |
| 1778014202 | 16.67° C | 73% | 1013.6 hPa | 0 mm | 0 m/s | - | - |
| 1778013904 | 16.67° C | 72% | 1013.7 hPa | 0 mm | 0 m/s | - | - |
| 1778013601 | 16.67° C | 72% | 1013.8 hPa | 0 mm | 0 m/s | - | - |
| 1778013301 | 17.22° C | 72% | 1013.8 hPa | 0 mm | 0 m/s | - | - |
| 1778013001 | 17.22° C | 71% | 1013.6 hPa | 0 mm | 0 m/s | - | - |
| 1778012701 | 17.22° C | 72% | 1013.5 hPa | 0 mm | 0.45 m/s, 155° | - | - |
| 1778012401 | 17.22° C | 72% | 1013.6 hPa | 0 mm | 0.89 m/s, 154° | - | - |
| 1778012102 | 17.22° C | 71% | 1013.6 hPa | 0 mm | 0.89 m/s, 158° | - | - |
| 1778011801 | 17.22° C | 72% | 1013.7 hPa | 0 mm | 0.45 m/s, 172° | - | - |
| 1778011502 | 17.22° C | 71% | 1013.7 hPa | 0 mm | 0.45 m/s, 164° | - | - |
| 1778011202 | 17.22° C | 70% | 1013.7 hPa | 0 mm | 0.89 m/s, 161° | - | - |
| 1778010901 | 17.22° C | 67% | 1013.7 hPa | 0 mm | 0.45 m/s, 161° | - | - |
| 1778010602 | 17.78° C | 68% | 1013.6 hPa | 0 mm | 0.45 m/s, 158° | - | - |
| 1778010302 | 17.78° C | 69% | 1013.6 hPa | 0 mm | 0.89 m/s, 157° | - | - |
| 1778010001 | 17.78° C | 67% | 1013.4 hPa | 0 mm | 0.89 m/s, 154° | - | - |
| 1778009701 | 17.78° C | 66% | 1013.4 hPa | 0 mm | 0.89 m/s, 154° | - | - |
| 1778009401 | 17.78° C | 66% | 1013.6 hPa | 0 mm | 0.89 m/s, 156° | - | - |
| 1778009101 | 17.78° C | 66% | 1013.7 hPa | 0 mm | 0.89 m/s, 153° | - | - |
| 1778008801 | 17.78° C | 65% | 1013.6 hPa | 0 mm | 0.89 m/s, 152° | - | - |
| 1778008501 | 18.33° C | 62% | 1013.7 hPa | 0 mm | 0.89 m/s, 159° | - | - |
| 1778008202 | 18.89° C | 63% | 1013.7 hPa | 0 mm | 0.89 m/s, 172° | - | - |
| 1778007901 | 18.89° C | 62% | 1013.8 hPa | 0 mm | 0.89 m/s, 181° | - | - |
| 1778007601 | 18.89° C | 62% | 1013.8 hPa | 0 mm | 0.89 m/s, 189° | - | - |
* Rain latest hour (hover to see other rain measurements)
** Current wind speed in m/s (hover to see current wind gust speed)